Location: Newark
(13.6797°N, 8.5297°E)
Time: 18:35:25
(UTC+00:00)

Courier 1B Rocket - Pass Details

Date: 27 January 2020
Orbit: 920 x 1202 km, 28.2° (Epoch: 25 February)

Event Time Altitude Azimuth Distance (km) Brightness Sun altitude
Rises 14:28:27 0° 303° (WNW) 3,773 8.3 37.2°
Reaches altitude 10° 14:31:27 10° 311° (NW) 2,775 7.6 36.6°
Maximum altitude 14:37:34 37° 17° (NNE) 1,449 5.9 35.4°
Drops below altitude 10° 14:43:22 10° 84° (E) 2,633 6.9 34.2°
Sets 14:46:09 0° 92° (E) 3,558 7.5 33.7°
